Location: Unspecified
(0.0000°N, 0.0000°E)
Time: 12:47:47
(UTC+00:00)

Envisat - Visible Passes

Search period start: 20 April 2019 00:00
Search period end: 30 April 2019 00:00
Orbit: 764 x 766 km, 98.2° (Epoch: 19 April)

Date Brightness Start Highest point End Pass type
(mag) Time Alt. Az. Time Alt. Az. Time Alt. Az.
20 Apr 2.9 18:51:02 10° SSE 18:56:05 70° ENE 19:01:07 10° N visible
21 Apr 4.1 18:15:23 10° SE 18:19:26 24° ENE 18:23:29 10° NNE visible
21 Apr 5.4 19:54:36 10° SSW 19:58:11 19° WSW 20:01:45 10° WNW visible
22 Apr 3.7 19:16:35 10° S 19:21:32 55° WSW 19:26:29 10° NNW visible
23 Apr 3.2 18:39:58 10° SSE 18:44:53 51° ENE 18:49:47 10° N visible
24 Apr 5.0 19:42:47 10° SSW 19:46:59 26° WSW 19:51:11 10° NW visible
25 Apr 3.1 19:05:16 10° S 19:10:21 76° WSW 19:15:24 10° NNW visible
26 Apr 3.5 18:29:02 10° SE 18:33:42 37° ENE 18:38:20 10° NNE visible
26 Apr 5.9 20:10:22 10° SW 20:12:25 12° WSW 20:14:29 10° WNW visible
27 Apr 4.5 19:31:12 10° SSW 19:35:48 35° WSW 19:40:24 10° NW visible
28 Apr 2.9 18:54:04 10° SSE 18:59:09 79° ENE 19:04:13 10° N visible
29 Apr 3.9 18:18:14 10° SE 18:22:30 27° ENE 18:26:44 10° NNE visible
29 Apr 5.6 19:57:59 10° SW 20:01:14 17° WSW 20:04:29 10° WNW visible
